Location: Peebles
(55.6412°N, 3.1714°W)
Time: 20:30:14
(UTC+01:00)

SR - All Passes

Search period start: 02 October 2022 00:00
Search period end: 12 October 2022 00:00
Orbit: 573 x 879 km, 66.7° (Epoch: 02 October)

Date Brightness Start Highest point End Pass type
(mag) Time Alt. Az. Time Alt. Az. Time Alt. Az.
02 Oct - 00:13:45 10° WSW 00:19:35 55° NW 00:25:16 10° NE visible
02 Oct - 01:57:41 10° WNW 02:02:47 29° NNW 02:07:42 10° NE visible
02 Oct - 03:41:24 10° NW 03:46:25 29° NNE 03:51:10 10° ENE visible
02 Oct - 05:23:59 10° NW 05:29:36 57° NE 05:34:45 10° ESE visible
02 Oct - 07:06:23 10° NW 07:11:35 42° WSW 07:16:21 10° S daylight
02 Oct - 21:42:19 10° S 21:47:26 32° ESE 21:52:32 10° NE visible
02 Oct - 23:23:14 10° SW 23:29:11 77° NW 23:35:00 10° NE visible
03 Oct - 01:06:43 10° W 01:12:04 34° NNW 01:17:14 10° NE visible
03 Oct - 02:50:44 10° NW 02:55:39 27° N 03:00:19 10° ENE visible
03 Oct - 04:33:40 10° NW 04:39:05 42° NNE 04:44:06 10° E visible
03 Oct - 06:15:59 10° NW 06:21:33 69° SW 06:26:37 10° SSE visible
03 Oct - 07:59:25 10° WNW 08:02:35 16° WSW 08:05:35 10° SW daylight
03 Oct - 20:53:33 10° SSE 20:57:38 20° ESE 21:01:41 10° ENE night (unlit)
03 Oct - 22:33:01 10° SSW 22:38:55 73° SE 22:44:44 10° NE visible
04 Oct - 00:15:49 10° W 00:21:27 43° NNW 00:26:53 10° NE visible
04 Oct - 01:59:55 10° WNW 02:04:51 27° N 02:09:36 10° NE visible
04 Oct - 03:43:16 10° NW 03:48:27 33° NNE 03:53:17 10° E visible
04 Oct - 05:25:40 10° NW 05:31:19 78° NE 05:36:29 10° SE visible
04 Oct - 07:08:21 10° WNW 07:12:52 27° WSW 07:17:05 10° S daylight
04 Oct - 20:06:23 10° ESE 20:07:59 11° E 20:09:35 10° E night (unlit)
04 Oct - 21:43:11 10° SSW 21:48:49 47° ESE 21:54:22 10° NE visible
04 Oct - 23:25:05 10° WSW 23:30:56 57° NW 23:36:37 10° NE visible
05 Oct - 01:08:58 10° WNW 01:14:05 30° NNW 01:19:00 10° NE visible
05 Oct - 02:52:44 10° NW 02:57:43 29° N 03:02:25 10° ENE visible
05 Oct - 04:35:22 10° NW 04:40:56 54° NE 04:46:02 10° ESE visible
05 Oct - 06:17:44 10° NW 06:22:59 45° WSW 06:27:47 10° SSE visible
05 Oct - 20:53:50 10° S 20:58:52 30° ESE 21:03:50 10° NE visible
05 Oct - 22:34:35 10° SW 22:40:33 81° NW 22:46:22 10° NE visible
06 Oct - 00:18:00 10° W 00:23:23 35° NNW 00:28:34 10° NE visible
06 Oct - 02:02:03 10° NW 02:06:56 27° N 02:11:35 10° ENE visible
06 Oct - 03:45:02 10° NW 03:50:23 40° NNE 03:55:21 10° E visible
06 Oct - 05:27:21 10° NW 05:32:55 73° SW 05:37:58 10° SSE visible
06 Oct - 07:10:39 10° WNW 07:14:00 17° WSW 07:17:13 10° SW daylight
06 Oct - 20:05:12 10° SSE 20:09:04 18° ESE 20:12:55 10° ENE visible
06 Oct - 21:44:24 10° SSW 21:50:18 69° SE 21:56:04 10° NE visible
06 Oct - 23:27:07 10° WSW 23:32:46 44° NNW 23:38:13 10° NE visible
07 Oct - 01:11:12 10° WNW 01:16:09 27° N 01:20:52 10° NE visible
07 Oct - 02:54:37 10° NW 02:59:44 32° NNE 03:04:32 10° E visible
07 Oct - 04:37:02 10° NW 04:42:39 74° NE 04:47:47 10° SE visible
07 Oct - 06:19:39 10° NW 06:24:16 29° WSW 06:28:33 10° S visible
07 Oct - 19:18:55 10° ESE 19:19:26 10° E 19:19:58 10° E visible
07 Oct - 20:54:38 10° S 21:00:12 44° ESE 21:05:42 10° NE visible
07 Oct - 22:36:23 10° WSW 22:42:16 60° NW 22:47:57 10° NE visible
08 Oct - 00:20:14 10° WNW 00:25:22 30° NNW 00:30:18 10° NE visible
08 Oct - 02:04:03 10° NW 02:08:59 28° N 02:13:39 10° ENE visible
08 Oct - 03:46:43 10° NW 03:52:14 51° NE 03:57:18 10° ESE visible
08 Oct - 05:29:05 10° NW 05:34:21 48° WSW 05:39:10 10° SSE visible
08 Oct - 20:05:21 10° S 20:10:16 28° ESE 20:15:07 10° ENE visible
08 Oct - 21:45:56 10° SW 21:51:53 85° NW 21:57:41 10° NE visible
08 Oct - 23:29:16 10° W 23:34:40 36° NNW 23:39:52 10° NE visible
09 Oct - 01:13:21 10° NW 01:18:12 27° N 01:22:50 10° ENE visible
09 Oct - 02:56:23 10° NW 03:01:41 38° NNE 03:06:35 10° E visible
09 Oct - 04:38:42 10° NW 04:44:15 78° SW 04:49:18 10° SE visible
09 Oct - 06:21:52 10° WNW 06:25:25 18° WSW 06:28:47 10° SSW visible
09 Oct - 19:16:51 10° SE 19:20:29 17° ESE 19:24:05 10° ENE visible
09 Oct - 20:55:48 10° SSW 21:01:39 65° SE 21:07:23 10° NE visible
09 Oct - 22:38:23 10° WSW 22:44:04 46° NNW 22:49:33 10° NE visible
10 Oct - 00:22:28 10° WNW 00:27:25 27° N 00:32:08 10° NE visible
10 Oct - 02:05:57 10° NW 02:11:00 31° NNE 02:15:44 10° E visible
10 Oct - 03:48:23 10° NW 03:53:59 70° NE 03:59:04 10° SE visible
10 Oct - 05:30:57 10° NW 05:35:39 31° WSW 05:40:00 10° S visible
10 Oct - 20:06:05 10° S 20:11:35 41° ESE 20:16:59 10° NE visible
10 Oct - 21:47:41 10° WSW 21:53:35 63° NW 21:59:16 10° NE visible
10 Oct - 23:31:30 10° WNW 23:36:39 31° NNW 23:41:35 10° NE visible
11 Oct - 01:15:22 10° NW 01:20:15 28° N 01:24:52 10° ENE visible
11 Oct - 02:58:05 10° NW 03:03:32 49° NNE 03:08:32 10° ESE visible
11 Oct - 04:40:25 10° NW 04:45:42 51° WSW 04:50:32 10° SSE visible
11 Oct - 06:25:20 10° W 06:26:26 11° W 06:27:31 10° WSW visible
11 Oct - 19:16:53 10° SSE 19:21:39 26° ESE 19:26:22 10° ENE visible
11 Oct - 20:57:16 10° SW 21:03:13 89° NW 21:09:00 10° NE visible
11 Oct - 22:40:31 10° W 22:45:57 37° NNW 22:51:10 10° NE visible
